This is the latest recevied weather packets stored in our database for station/object N3TCR-13. If no packets are shown the sender has not sent any weather packets the latest 10 day(s).
| Time | Temp. | Humidity | Pressure | Rain* | Wind** | Luminosity | Snow |
|---|---|---|---|---|---|---|---|
| 1777517117 | 11.11° C | 100% | 992.2 hPa | 0.25 mm | - | - | - |
| 1777515317 | 11.67° C | 100% | 992.4 hPa | 2.03 mm | - | - | - |
| 1777502716 | 12.78° C | 100% | 990.4 hPa | 3.3 mm | - | - | - |
| 1777497318 | 14.44° C | 100% | 992.5 hPa | 0 mm | - | - | - |
| 1777496438 | 14.44° C | 100% | 992.4 hPa | 0 mm | - | - | - |
| 1777487418 | 13.89° C | 100% | 995.1 hPa | 0 mm | - | - | - |
| 1777476617 | 12.78° C | 100% | 997.7 hPa | 0 mm | - | - | - |
| 1777475738 | 12.78° C | 100% | 998 hPa | 0 mm | - | - | - |
| 1777474817 | 12.78° C | 100% | 998.2 hPa | 0 mm | - | - | - |
| 1777470317 | 11.67° C | 100% | 997.9 hPa | 0 mm | - | - | - |
| 1777464016 | 11.11° C | 100% | 998.3 hPa | 0 mm | - | - | - |
| 1777454117 | 11.11° C | 100% | 998.7 hPa | 0 mm | - | - | - |
| 1777453237 | 11.11° C | 100% | 998.7 hPa | 0 mm | - | - | - |
| 1777447817 | 11.11° C | 100% | 998.8 hPa | 0 mm | - | - | - |
| 1777441517 | 11.67° C | 100% | 999.9 hPa | 0 mm | - | - | - |
| 1777438817 | 12.22° C | 100% | 1000.7 hPa | 0 mm | - | - | - |
| 1777423517 | 12.78° C | 100% | 1000.4 hPa | 0 mm | - | - | - |
| 1777419917 | 13.33° C | 100% | 1001 hPa | 0 mm | - | - | - |
| 1777417258 | 13.89° C | 100% | 1000.9 hPa | 0 mm | - | - | - |
| 1777416317 | 13.89° C | 100% | 1001.1 hPa | 0 mm | - | - | - |
| 1777408217 | 13.33° C | 100% | 1001.3 hPa | 0 mm | - | - | - |
| 1777403717 | 12.78° C | 98% | 1001.7 hPa | 0 mm | - | - | - |
| 1777400118 | 11.67° C | 100% | 1002.2 hPa | 0 mm | - | - | - |
| 1777399237 | 11.11° C | 100% | 1002.4 hPa | 0 mm | - | - | - |
| 1777397417 | 11.11° C | 100% | 1002.7 hPa | 0 mm | - | - | - |
* Rain latest hour (hover to see other rain measurements)
** Current wind speed in m/s (hover to see current wind gust speed)